Tiempo cada hora Cayo Levantado

Hoy, 26 Enero, Martes

Tiempo Temperatura Precipitaciones Viento Presión Humedad
00:00 +22°C° 0.1 mm 3 mps 748 mmHg 87%
01:00 +22°C° 0.1 mm 3 mps 748 mmHg 88%
02:00 +22°C° 0.2 mm 4 mps 748 mmHg 89%
03:00 +22°C° 0.2 mm 4 mps 748 mmHg 90%
04:00 +22°C° 0.2 mm 4 mps 748 mmHg 91%
05:00 +22°C° 0.2 mm 4 mps 748 mmHg 91%
06:00 +22°C° 0.2 mm 4 mps 748 mmHg 91%
07:00 +22°C° 0.2 mm 4 mps 749 mmHg 91%
08:00 +23°C° 0.5 mm 4 mps 749 mmHg 90%
09:00 +23°C° 0.5 mm 5 mps 749 mmHg 89%
10:00 +23°C° 0.5 mm 5 mps 750 mmHg 88%
11:00 +25°C° 0.2 mm 5 mps 749 mmHg 83%
12:00 +26°C° 0.2 mm 5 mps 749 mmHg 77%
13:00 +27°C° 0.2 mm 5 mps 748 mmHg 71%
14:00 +27°C° 0.1 mm 5 mps 748 mmHg 73%
15:00 +26°C° 0.1 mm 5 mps 748 mmHg 75%
16:00 +26°C° 0.1 mm 5 mps 747 mmHg 77%
17:00 +25°C° 0 mm 5 mps 748 mmHg 79%
18:00 +25°C° 0 mm 5 mps 748 mmHg 81%
19:00 +23°C° 0 mm 4 mps 749 mmHg 84%
20:00 +23°C° 0 mm 4 mps 749 mmHg 84%
21:00 +23°C° 0 mm 4 mps 749 mmHg 84%
22:00 +23°C° 0 mm 4 mps 749 mmHg 85%
23:00 +23°C° 0 mm 4 mps 749 mmHg 85%

Mañana, 27 Enero, Miércoles

Tiempo Temperatura Precipitaciones Viento Presión Humedad
00:00 +23°C° 0 mm 4 mps 749 mmHg 85%
01:00 +23°C° 0 mm 4 mps 748 mmHg 85%
02:00 +23°C° 0 mm 4 mps 748 mmHg 85%
03:00 +23°C° 0 mm 4 mps 748 mmHg 85%
04:00 +22°C° 0 mm 4 mps 748 mmHg 85%
05:00 +23°C° 0 mm 4 mps 748 mmHg 82%
06:00 +23°C° 0 mm 4 mps 749 mmHg 79%
07:00 +23°C° 0 mm 4 mps 749 mmHg 77%
08:00 +25°C° 0 mm 4 mps 749 mmHg 74%
09:00 +25°C° 0 mm 4 mps 750 mmHg 70%
10:00 +26°C° 0 mm 4 mps 750 mmHg 67%
11:00 +26°C° 0 mm 4 mps 749 mmHg 66%
12:00 +27°C° 0 mm 4 mps 749 mmHg 64%
13:00 +27°C° 0 mm 4 mps 748 mmHg 62%
14:00 +27°C° 0 mm 4 mps 748 mmHg 64%
15:00 +27°C° 0 mm 4 mps 747 mmHg 66%
16:00 +26°C° 0 mm 4 mps 747 mmHg 68%
17:00 +25°C° 0 mm 4 mps 747 mmHg 72%
18:00 +23°C° 0 mm 4 mps 748 mmHg 76%
19:00 +23°C° 0 mm 4 mps 748 mmHg 80%
20:00 +22°C° 0 mm 3 mps 748 mmHg 81%
21:00 +22°C° 0 mm 3 mps 748 mmHg 82%
22:00 +22°C° 0 mm 3 mps 748 mmHg 84%
23:00 +22°C° 0 mm 3 mps 748 mmHg 84%

Pasado mañana, 28 Enero, Jueves

Tiempo Temperatura Precipitaciones Viento Presión Humedad
00:00 +21°C° 0 mm 2 mps 748 mmHg 84%
01:00 +21°C° 0 mm 2 mps 748 mmHg 85%
02:00 +21°C° 0 mm 2 mps 748 mmHg 85%
03:00 +21°C° 0 mm 2 mps 747 mmHg 85%
04:00 +21°C° 0 mm 2 mps 747 mmHg 85%
05:00 +21°C° 0 mm 2 mps 747 mmHg 85%
06:00 +21°C° 0 mm 2 mps 748 mmHg 86%
07:00 +21°C° 0 mm 2 mps 748 mmHg 86%
08:00 +24°C° 0 mm 2 mps 748 mmHg 79%
09:00 +26°C° 0 mm 2 mps 748 mmHg 71%
10:00 +28°C° 0 mm 2 mps 748 mmHg 64%
11:00 +28°C° 0 mm 2 mps 748 mmHg 63%
12:00 +29°C° 0 mm 2 mps 747 mmHg 61%
13:00 +29°C° 0 mm 2 mps 747 mmHg 59%
14:00 +29°C° 0 mm 2 mps 746 mmHg 63%
15:00 +29°C° 0 mm 2 mps 746 mmHg 66%
16:00 +28°C° 0 mm 3 mps 746 mmHg 69%
17:00 +27°C° 0.1 mm 2 mps 746 mmHg 76%
18:00 +26°C° 0.1 mm 2 mps 747 mmHg 83%
19:00 +24°C° 0.1 mm 2 mps 747 mmHg 90%
20:00 +24°C° 0.3 mm 2 mps 747 mmHg 90%
21:00 +24°C° 0.3 mm 2 mps 747 mmHg 90%
22:00 +24°C° 0.3 mm 3 mps 747 mmHg 90%
23:00 +24°C° 0.1 mm 3 mps 747 mmHg 89%

29 Enero, Viernes

Tiempo Temperatura Precipitaciones Viento Presión Humedad
00:00 +24°C° 0.1 mm 3 mps 747 mmHg 88%
01:00 +22°C° 0.1 mm 4 mps 747 mmHg 88%
02:00 +22°C° 0.1 mm 4 mps 746 mmHg 86%
03:00 +22°C° 0.1 mm 4 mps 746 mmHg 83%
04:00 +22°C° 0.1 mm 4 mps 746 mmHg 81%
05:00 +22°C° 0 mm 4 mps 746 mmHg 81%
06:00 +22°C° 0 mm 4 mps 746 mmHg 80%
07:00 +22°C° 0 mm 3 mps 747 mmHg 80%
08:00 +24°C° 0.1 mm 3 mps 747 mmHg 76%
09:00 +25°C° 0.1 mm 3 mps 747 mmHg 73%
10:00 +26°C° 0.1 mm 3 mps 748 mmHg 69%
11:00 +27°C° 0.1 mm 3 mps 747 mmHg 66%
12:00 +27°C° 0.1 mm 3 mps 747 mmHg 62%
13:00 +28°C° 0.1 mm 3 mps 746 mmHg 59%
14:00 +27°C° 0 mm 3 mps 746 mmHg 61%
15:00 +27°C° 0 mm 3 mps 746 mmHg 63%
16:00 +27°C° 0 mm 3 mps 746 mmHg 65%
17:00 +26°C° 0.2 mm 4 mps 746 mmHg 73%
18:00 +23°C° 0.2 mm 5 mps 747 mmHg 80%
19:00 +22°C° 0.2 mm 5 mps 747 mmHg 88%
20:00 +22°C° 0.5 mm 6 mps 747 mmHg 89%
21:00 +22°C° 0.5 mm 6 mps 748 mmHg 90%
22:00 +22°C° 0.5 mm 6 mps 748 mmHg 91%
23:00 +22°C° 0.7 mm 7 mps 748 mmHg 90%

30 Enero, Sábado

Tiempo Temperatura Precipitaciones Viento Presión Humedad
00:00 +22°C° 0.7 mm 7 mps 748 mmHg 90%
01:00 +22°C° 0.7 mm 7 mps 748 mmHg 89%
02:00 +22°C° 0.6 mm 7 mps 748 mmHg 88%
03:00 +22°C° 0.6 mm 7 mps 748 mmHg 88%
04:00 +22°C° 0.6 mm 7 mps 748 mmHg 87%
05:00 +22°C° 0.4 mm 7 mps 748 mmHg 87%
06:00 +22°C° 0.4 mm 7 mps 748 mmHg 87%
07:00 +22°C° 0.4 mm 7 mps 749 mmHg 86%
08:00 +22°C° 0.2 mm 7 mps 749 mmHg 83%
09:00 +23°C° 0.2 mm 7 mps 750 mmHg 81%
10:00 +24°C° 0.2 mm 6 mps 750 mmHg 78%
11:00 +23°C° 0.5 mm 6 mps 750 mmHg 80%
12:00 +23°C° 0.5 mm 6 mps 749 mmHg 83%
13:00 +23°C° 0.5 mm 6 mps 749 mmHg 86%
14:00 +23°C° 0.3 mm 6 mps 748 mmHg 85%
15:00 +23°C° 0.3 mm 6 mps 748 mmHg 84%
16:00 +23°C° 0.3 mm 7 mps 748 mmHg 84%
17:00 +23°C° 0.3 mm 7 mps 748 mmHg 84%
18:00 +22°C° 0.3 mm 7 mps 749 mmHg 85%
19:00 +22°C° 0.3 mm 7 mps 749 mmHg 86%
20:00 +22°C° 0.2 mm 6 mps 749 mmHg 86%
21:00 +22°C° 0.2 mm 6 mps 749 mmHg 87%
22:00 +22°C° 0.2 mm 6 mps 749 mmHg 87%
23:00 +22°C° 0.2 mm 6 mps 749 mmHg 87%

31 Enero, Domingo

Tiempo Temperatura Precipitaciones Viento Presión Humedad
00:00 +22°C° 0.2 mm 6 mps 749 mmHg 87%
01:00 +22°C° 0.2 mm 6 mps 749 mmHg 87%
02:00 +22°C° 0.2 mm 6 mps 749 mmHg 88%
03:00 +22°C° 0.2 mm 6 mps 749 mmHg 88%
04:00 +21°C° 0.2 mm 6 mps 749 mmHg 88%
05:00 +22°C° 0.1 mm 6 mps 749 mmHg 86%
06:00 +22°C° 0.1 mm 6 mps 749 mmHg 85%
07:00 +22°C° 0.1 mm 6 mps 750 mmHg 84%
08:00 +23°C° 0 mm 6 mps 750 mmHg 78%
09:00 +24°C° 0 mm 6 mps 750 mmHg 73%
10:00 +26°C° 0 mm 6 mps 751 mmHg 67%
11:00 +26°C° 0 mm 6 mps 750 mmHg 67%
12:00 +26°C° 0 mm 6 mps 749 mmHg 67%
13:00 +26°C° 0 mm 5 mps 748 mmHg 67%
14:00 +26°C° 0 mm 5 mps 748 mmHg 70%
15:00 +25°C° 0 mm 5 mps 748 mmHg 73%
16:00 +25°C° 0 mm 5 mps 748 mmHg 75%
17:00 +25°C° 0.1 mm 5 mps 748 mmHg 78%
18:00 +23°C° 0.1 mm 5 mps 748 mmHg 80%
19:00 +23°C° 0.1 mm 5 mps 748 mmHg 83%
20:00 +23°C° 0.4 mm 5 mps 748 mmHg 85%
21:00 +23°C° 0.4 mm 5 mps 748 mmHg 87%
22:00 +23°C° 0.4 mm 5 mps 749 mmHg 89%
23:00 +23°C° 1.5 mm 4 mps 748 mmHg 90%
Mostrar más